Location: Coopersdale
(40.3556°N, 78.9372°W)
Time: 00:43:55
(UTC+00:00)

Tiros 1 - Pass Details

Date: 24 January 2021
Orbit: 630 x 664 km, 48.4° (Epoch: 06 March)

Event Time Altitude Azimuth Distance (km) Brightness Sun altitude
Rises 23:59:30 0° 252° (WSW) 2,924 12.2 -18.2°
Reaches altitude 10° 00:01:52 10° 256° (WSW) 2,013 11.0 -18.6°
Maximum altitude 00:06:25 57° 335° (NNW) 743 7.5 -19.5°
Enters shadow 00:08:03 36° 36° (NE) 999 7.7 -19.8°
